KQ4Q-8 Weather Reports


Display with metric or nautical units.
time (UTC)temp
F
wind
direction
speed
MPH
gust
MPH
rain 1hr
in
rain 24hr
in
rain mn
in
humidity
%
barometer
mb
20260510153106 69 271 2.0 3.0 0.00 0.00 0.00 52 1018.1
20260510152552 69 243 6.0 9.0 0.00 0.00 0.00 53 1018.1
20260510152052 68 248 3.0 7.0 0.00 0.00 0.00 53 1018.1
20260510151551 69 249 6.0 9.0 0.00 0.00 0.00 52 1018.1
20260510151051 69 268 5.0 6.0 0.00 0.00 0.00 52 1017.9
20260510150553 68 248 4.0 7.0 0.00 0.00 0.00 52 1017.9
20260510150053 68 260 6.0 11.0 0.00 0.00 0.00 53 1017.9
20260510145552 68 291 4.0 5.0 0.00 0.00 0.00 53 1017.8
20260510145052 67 276 3.0 7.0 0.00 0.00 0.00 53 1017.8
20260510144551 67 261 4.0 7.0 0.00 0.00 0.00 54 1017.8
20260510144052 67 268 5.0 9.0 0.00 0.00 0.00 54 1017.9
20260510143553 67 248 6.0 8.0 0.00 0.00 0.00 54 1017.8
20260510143051 67 242 3.0 6.0 0.00 0.00 0.00 56 1017.8
20260510142551 66 252 5.0 10.0 0.00 0.00 0.00 57 1017.8
20260510142056 66 227 4.0 7.0 0.00 0.00 0.00 57 1017.7
20260510141555 65 264 4.0 7.0 0.00 0.00 0.00 57 1017.6
20260510141051 65 264 4.0 7.0 0.00 0.00 0.00 58 1017.7
20260510140552 65 261 5.0 9.0 0.00 0.00 0.00 58 1017.6
20260510140053 65 285 4.0 6.0 0.00 0.00 0.00 60 1017.6
20260510135552 64 244 3.0 4.0 0.00 0.00 0.00 60 1017.6
20260510135052 64 249 4.0 7.0 0.00 0.00 0.00 60 1017.6
20260510134553 64 239 4.0 6.0 0.00 0.00 0.00 61 1017.6
20260510134052 64 293 4.0 5.0 0.00 0.00 0.00 61 1017.6
20260510133552 63 229 4.0 6.0 0.00 0.00 0.00 62 1017.6
20260510133053 63 238 4.0 6.0 0.00 0.00 0.00 62 1017.6
20260510132551 62 253 4.0 7.0 0.00 0.00 0.00 63 1017.5
20260510132053 62 206 2.0 4.0 0.00 0.00 0.00 64 1017.6
20260510131552 62 254 4.0 5.0 0.00 0.00 0.00 64 1017.7
20260510131053 61 243 4.0 4.0 0.00 0.00 0.00 65 1017.7
20260510130553 61 263 3.0 4.0 0.00 0.00 0.00 65 1017.6
20260510130053 61 248 4.0 6.0 0.00 0.00 0.00 65 1017.5
20260510125552 61 257 3.0 4.0 0.00 0.00 0.00 65 1017.5
20260510125054 60 229 5.0 7.0 0.00 0.00 0.00 65 1017.5
20260510124551 60 258 4.0 5.0 0.00 0.00 0.00 67 1017.5
20260510124051 60 258 4.0 5.0 0.00 0.00 0.00 67 1017.5
20260510123552 59 263 3.0 4.0 0.00 0.00 0.00 69 1017.4
20260510123053 59 273 4.0 5.0 0.00 0.00 0.00 69 1017.3
20260510122554 58 251 3.0 4.0 0.00 0.00 0.00 72 1017.3
20260510122052 57 266 2.0 2.0 0.00 0.00 0.00 73 1017.3
20260510121552 57 261 1.0 2.0 0.00 0.00 0.00 75 1017.2
20260510121051 56 232 3.0 3.0 0.00 0.00 0.00 75 1017.1
20260510120554 56 255 2.0 2.0 0.00 0.00 0.00 76 1017.0
20260510120051 55 277 0.0 1.0 0.00 0.00 0.00 78 1016.9
20260510115554 55 259 0.0 1.0 0.00 0.00 0.00 79 1016.9
20260510115051 55 198 1.0 2.0 0.00 0.00 0.00 78 1016.9
20260510114551 55 179 0.0 1.0 0.00 0.00 0.00 79 1016.9
20260510114052 55 296 0.0 0.0 0.00 0.00 0.00 78 1016.8
20260510113551 55 236 1.0 2.0 0.00 0.00 0.00 78 1016.7
20260510113055 55 277 2.0 2.0 0.00 0.00 0.00 78 1016.8
20260510112553 55 239 2.0 2.0 0.00 0.00 0.00 78 1016.8
20260510112054 54 263 1.0 2.0 0.00 0.00 0.00 79 1016.8
20260510111554 53 279 0.0 1.0 0.00 0.00 0.00 80 1016.7
20260510111053 53 265 2.0 2.0 0.00 0.00 0.00 82 1016.7
20260510110552 52 249 2.0 2.0 0.00 0.00 0.00 83 1016.5
20260510110052 51 264 2.0 2.0 0.00 0.00 0.00 86 1016.3
20260510105552 49 251 2.0 2.0 0.00 0.00 0.00 88 1016.3
20260510105052 49 266 2.0 2.0 0.00 0.00 0.00 91 1016.1
20260510104555 48 261 2.0 2.0 0.00 0.00 0.00 92 1016.1
20260510104051 48 268 1.0 1.0 0.00 0.00 0.00 93 1016.0
20260510103551 48 267 2.0 2.0 0.00 0.00 0.00 93 1016.0
20260510103052 48 276 1.0 2.0 0.00 0.00 0.00 93 1015.9
20260510102552 48 276 2.0 2.0 0.00 0.00 0.00 93 1015.8
20260510102051 48 277 2.0 2.0 0.00 0.00 0.00 92 1015.7
20260510101556 49 271 1.0 1.0 0.00 0.00 0.00 92 1015.7
20260510101054 49 264 1.0 2.0 0.00 0.00 0.00 91 1015.7
20260510100551 49 266 2.0 2.0 0.00 0.00 0.00 89 1015.7
20260510100051 50 272 1.0 2.0 0.00 0.00 0.00 89 1015.7
20260510095551 50 281 1.0 1.0 0.00 0.00 0.00 88 1015.7
20260510095051 50 292 1.0 2.0 0.00 0.00 0.00 89 1015.7
20260510094555 50 288 2.0 2.0 0.00 0.00 0.00 89 1015.6
20260510094052 50 283 2.0 2.0 0.00 0.00 0.00 90 1015.6
20260510093551 50 286 2.0 2.0 0.00 0.00 0.00 90 1015.6
20260510093052 49 276 2.0 2.0 0.00 0.00 0.00 91 1015.6
20260510092551 49 286 2.0 2.0 0.00 0.00 0.00 91 1015.6
20260510092051 49 276 1.0 2.0 0.00 0.00 0.00 92 1015.5
20260510091553 48 274 2.0 2.0 0.00 0.00 0.00 92 1015.5
20260510091052 48 270 2.0 2.0 0.00 0.00 0.00 93 1015.5
20260510090552 47 282 2.0 2.0 0.00 0.00 0.00 93 1015.4
20260510090052 47 273 2.0 2.0 0.00 0.00 0.00 94 1015.2
20260510085551 46 278 2.0 2.0 0.00 0.00 0.00 94 1015.1
20260510085051 46 274 2.0 2.0 0.00 0.00 0.00 94 1015.1
20260510084552 46 284 2.0 2.0 0.00 0.00 0.00 94 1015.1
20260510084052 47 289 2.0 2.0 0.00 0.00 0.00 94 1015.1
20260510083552 47 295 2.0 2.0 0.00 0.00 0.00 94 1015.1
20260510083051 47 284 2.0 2.0 0.00 0.00 0.00 94 1015.0
20260510082552 47 294 2.0 2.0 0.00 0.00 0.00 94 1015.0
20260510082052 47 277 2.0 2.0 0.00 0.00 0.00 94 1015.0
20260510081552 46 298 2.0 2.0 0.00 0.00 0.00 94 1015.0
20260510081051 46 299 2.0 3.0 0.00 0.00 0.00 94 1014.9
20260510080552 47 277 2.0 2.0 0.00 0.00 0.00 94 1014.9
20260510080052 47 272 2.0 2.0 0.00 0.00 0.00 93 1014.8
20260510075552 47 275 2.0 3.0 0.00 0.00 0.00 93 1014.8
20260510075051 47 283 2.0 2.0 0.00 0.00 0.00 94 1014.7
20260510074552 46 285 1.0 2.0 0.00 0.00 0.00 94 1014.6
20260510074051 46 278 2.0 3.0 0.00 0.00 0.00 94 1014.6
20260510073552 46 280 2.0 2.0 0.00 0.00 0.00 93 1014.6
20260510073052 47 266 1.0 2.0 0.00 0.00 0.00 93 1014.6
20260510072551 47 286 2.0 2.0 0.00 0.00 0.00 94 1014.6
20260510072052 46 283 2.0 2.0 0.00 0.00 0.00 94 1014.6
20260510071552 46 271 1.0 1.0 0.00 0.00 0.00 93 1014.6
20260510071054 47 271 1.0 2.0 0.00 0.00 0.00 92 1014.6
20260510070553 47 278 2.0 2.0 0.00 0.00 0.00 92 1014.6
20260510070054 47 292 2.0 2.0 0.00 0.00 0.00 93 1014.6
20260510065552 46 284 2.0 2.0 0.00 0.00 0.00 93 1014.6
20260510065052 46 281 2.0 2.0 0.00 0.00 0.00 94 1014.6
20260510064551 46 272 1.0 2.0 0.00 0.00 0.00 93 1014.6
20260510064052 47 245 1.0 2.0 0.00 0.00 0.00 91 1014.6
20260510063552 47 278 1.0 2.0 0.00 0.00 0.00 92 1014.6
20260510063053 47 283 2.0 3.0 0.00 0.00 0.00 92 1014.6
20260510062551 47 296 2.0 3.0 0.00 0.00 0.00 92 1014.6
20260510062051 47 284 2.0 3.0 0.00 0.00 0.00 92 1014.6
20260510061551 47 285 3.0 4.0 0.00 0.00 0.00 92 1014.6
20260510061052 47 280 2.0 4.0 0.00 0.00 0.00 92 1014.6
20260510060551 47 272 2.0 3.0 0.00 0.00 0.00 91 1014.5
20260510060054 47 266 2.0 3.0 0.00 0.00 0.00 91 1014.5
20260510055551 47 273 0.0 1.0 0.00 0.00 0.00 91 1014.5
20260510055051 47 270 1.0 2.0 0.00 0.00 0.00 91 1014.5
20260510054551 47 289 0.0 2.0 0.00 0.00 0.00 91 1014.5
20260510054051 47 281 1.0 2.0 0.00 0.00 0.00 91 1014.5
20260510053551 47 278 1.0 2.0 0.00 0.00 0.00 91 1014.6
20260510053051 47 282 1.0 2.0 0.00 0.00 0.00 91 1014.6
20260510052553 47 278 2.0 2.0 0.00 0.00 0.00 91 1014.6
20260510052051 47 291 2.0 2.0 0.00 0.00 0.00 90 1014.7
20260510051557 48 281 2.0 2.0 0.00 0.00 0.00 89 1014.7
20260510051052 48 285 2.0 2.0 0.00 0.00 0.00 89 1014.7
20260510050551 48 282 2.0 2.0 0.00 0.00 0.00 88 1014.7
20260510050051 48 280 2.0 2.0 0.00 0.00 0.00 88 1014.7
20260510045552 48 274 0.0 1.0 0.00 0.00 0.00 88 1014.7
20260510045053 48 275 1.0 2.0 0.00 0.00 0.00 87 1014.7
20260510044551 48 280 1.0 1.0 0.00 0.00 0.00 88 1014.6
20260510044053 48 273 1.0 2.0 0.00 0.00 0.00 88 1014.6
20260510043551 48 269 1.0 2.0 0.00 0.00 0.00 88 1014.6
20260510043052 48 274 0.0 1.0 0.00 0.00 0.00 87 1014.5
20260510042551 49 273 1.0 2.0 0.00 0.00 0.00 87 1014.6
20260510042051 49 274 2.0 2.0 0.00 0.00 0.00 86 1014.6
20260510041552 50 290 1.0 2.0 0.00 0.00 0.00 85 1014.7
20260510041054 50 282 2.0 3.0 0.00 0.00 0.00 85 1014.7
20260510040552 50 272 2.0 2.0 0.00 0.00 0.00 85 1014.6
20260510040052 50 268 1.0 2.0 0.00 0.00 0.00 85 1014.5
20260510035553 50 274 1.0 2.0 0.00 0.00 0.00 85 1014.5
20260510035051 50 261 1.0 2.0 0.00 0.00 0.00 84 1014.5
20260510034552 49 248 1.0 2.0 0.00 0.00 0.00 85 1014.5
20260510034051 49 239 0.0 1.0 0.00 0.00 0.00 85 1014.5
20260510033553 49 268 0.0 0.0 0.00 0.00 0.00 84 1014.5
20260510033052 50 248 0.0 1.0 0.00 0.00 0.00 84 1014.4
20260510032555 50 258 0.0 1.0 0.00 0.00 0.00 84 1014.4
20260510032054 50 241 1.0 1.0 0.00 0.00 0.00 84 1014.4
20260510031552 50 243 0.0 1.0 0.00 0.00 0.00 83 1014.4
20260510031054 50 242 1.0 2.0 0.00 0.00 0.00 83 1014.4
20260510030555 50 240 1.0 1.0 0.00 0.00 0.00 83 1014.4
20260510030053 51 236 1.0 2.0 0.00 0.00 0.00 82 1014.4
20260510025552 51 250 1.0 2.0 0.00 0.00 0.00 82 1014.4
20260510025052 51 233 1.0 2.0 0.00 0.00 0.00 80 1014.4
20260510024551 52 267 2.0 2.0 0.00 0.00 0.00 81 1014.4
20260510024051 52 255 1.0 2.0 0.00 0.00 0.00 80 1014.4
20260510023551 52 287 2.0 2.0 0.00 0.00 0.00 79 1014.5
20260510023055 52 262 2.0 2.0 0.00 0.00 0.00 80 1014.4
20260510022552 53 271 2.0 2.0 0.00 0.00 0.00 79 1014.3
20260510022054 53 282 1.0 2.0 0.00 0.00 0.00 78 1014.3
20260510021553 53 286 2.0 2.0 0.00 0.00 0.00 78 1014.2
20260510021052 53 286 2.0 3.0 0.00 0.00 0.00 78 1014.3
20260510020552 53 268 2.0 2.0 0.00 0.00 0.00 78 1014.1
20260510020052 53 281 2.0 2.0 0.00 0.00 0.00 77 1014.0
20260510015552 53 279 1.0 2.0 0.00 0.00 0.00 77 1013.8
20260510015053 54 267 0.0 1.0 0.00 0.00 0.00 76 1013.7
20260510014551 54 276 1.0 1.0 0.00 0.00 0.00 75 1013.7
20260510014052 54 279 1.0 1.0 0.00 0.00 0.00 75 1013.6
20260510013551 54 274 0.0 1.0 0.00 0.00 0.00 75 1013.5
20260510013052 54 269 0.0 1.0 0.00 0.00 0.00 75 1013.4
20260510012551 54 266 0.0 1.0 0.00 0.00 0.00 75 1013.4
20260510012051 54 0 0.0 0.0 0.00 0.00 0.00 75 1013.3
20260510011552 55 0 0.0 0.0 0.00 0.00 0.00 75 1013.2
20260510011051 55 260 0.0 1.0 0.00 0.00 0.00 73 1013.1
20260510010551 55 293 1.0 1.0 0.00 0.00 0.00 73 1013.2
20260510010053 55 283 1.0 2.0 0.00 0.00 0.00 73 1013.1
20260510005551 56 273 0.0 1.0 0.00 0.00 0.00 72 1013.0
20260510005051 56 0 0.0 0.0 0.00 0.00 0.00 71 1013.0
20260510004552 56 249 0.0 1.0 0.00 0.00 0.00 70 1013.0
20260510004051 57 0 0.0 0.0 0.00 0.00 0.00 70 1012.9
20260510003552 58 0 0.0 0.0 0.00 0.00 0.00 69 1012.8
20260510003055 58 0 0.0 0.0 0.00 0.00 0.00 69 1012.9
20260510002552 59 0 0.0 0.0 0.00 0.00 0.00 67 1012.9
20260510002051 60 0 0.0 0.0 0.00 0.00 0.00 64 1012.9
20260510001551 61 0 0.0 0.0 0.00 0.00 0.00 62 1013.0
20260510001051 61 262 0.0 1.0 0.00 0.00 0.00 62 1013.0
20260510000551 61 285 1.0 2.0 0.00 0.00 0.00 60 1012.8
20260510000052 62 283 2.0 5.0 0.00 0.00 0.00 60 1012.8
20260509235552 62 285 1.0 2.0 0.00 0.00 0.00 59 1012.8
20260509235051 62 271 3.0 4.0 0.00 0.00 0.00 59 1012.5
20260509234553 63 251 2.0 3.0 0.00 0.00 0.00 58 1012.5
20260509234053 63 313 2.0 4.0 0.00 0.00 0.00 58 1012.4
20260509233551 63 241 1.0 2.0 0.00 0.00 0.00 58 1012.4
20260509233052 64 296 3.0 4.0 0.00 0.00 0.00 57 1012.4
20260509232551 65 267 1.0 2.0 0.00 0.00 0.00 56 1012.4
20260509232051 65 283 2.0 3.0 0.00 0.00 0.00 56 1012.4
20260509231551 65 263 2.0 4.0 0.00 0.00 0.00 55 1012.3
20260509231052 65 283 2.0 3.0 0.00 0.00 0.00 55 1012.3
20260509230552 65 242 3.0 5.0 0.00 0.00 0.00 55 1012.3
20260509230052 65 256 4.0 5.0 0.00 0.00 0.00 54 1012.3
20260509225551 65 359 2.0 4.0 0.00 0.00 0.00 54 1012.3
20260509225051 65 262 1.0 2.0 0.00 0.00 0.00 55 1012.2
20260509224552 65 288 2.0 3.0 0.00 0.00 0.00 54 1012.3
20260509224052 65 255 3.0 5.0 0.00 0.00 0.00 55 1012.4
20260509223552 65 282 4.0 6.0 0.00 0.00 0.00 55 1012.5
20260509223051 65 260 4.0 7.0 0.00 0.00 0.00 55 1012.4
20260509222551 65 232 3.0 6.0 0.00 0.00 0.00 55 1012.4
20260509222053 65 273 5.0 8.0 0.00 0.00 0.00 55 1012.5
20260509221552 66 265 5.0 6.0 0.00 0.00 0.00 54 1012.5
20260509221051 67 252 4.0 8.0 0.00 0.00 0.00 53 1012.5
20260509220553 67 263 4.0 7.0 0.00 0.00 0.00 53 1012.5
20260509220053 66 230 1.0 2.0 0.00 0.00 0.00 53 1012.5
20260509215551 66 279 2.0 4.0 0.00 0.00 0.00 53 1012.4
20260509215051 66 227 3.0 6.0 0.00 0.00 0.00 54 1012.4
20260509214554 66 243 4.0 7.0 0.00 0.00 0.00 53 1012.4
20260509214052 67 274 4.0 9.0 0.00 0.00 0.00 54 1012.5
20260509213552 66 237 2.0 3.0 0.00 0.00 0.00 53 1012.4
20260509213053 65 279 4.0 6.0 0.00 0.00 0.00 54 1012.4
20260509212553 65 261 7.0 11.0 0.00 0.00 0.00 54 1012.4
20260509212051 65 290 5.0 9.0 0.00 0.00 0.00 55 1012.5
20260509211551 65 320 2.0 5.0 0.00 0.00 0.00 55 1012.4
20260509211054 65 248 4.0 7.0 0.00 0.00 0.00 54 1012.3
20260509210554 65 233 6.0 9.0 0.00 0.00 0.00 53 1012.2
20260509210053 65 274 6.0 9.0 0.00 0.00 0.00 53 1012.2
20260509205552 65 233 2.0 4.0 0.00 0.00 0.00 54 1012.3
20260509205051 64 308 3.0 5.0 0.00 0.00 0.00 55 1012.2
20260509204552 64 235 5.0 8.0 0.00 0.00 0.00 54 1012.2
20260509204053 64 283 4.0 6.0 0.00 0.00 0.00 55 1012.2
20260509203551 64 269 5.0 7.0 0.00 0.00 0.00 54 1012.2
20260509203052 64 238 4.0 7.0 0.00 0.00 0.00 54 1012.1
20260509202553 64 254 3.0 4.0 0.00 0.00 0.00 54 1012.1
20260509202052 64 272 4.0 6.0 0.00 0.00 0.00 53 1012.0
20260509201551 65 249 4.0 6.0 0.00 0.00 0.00 53 1011.9
20260509201051 65 241 3.0 4.0 0.00 0.00 0.00 54 1011.8
20260509200553 65 271 4.0 6.0 0.00 0.00 0.00 54 1011.8
20260509200051 64 294 3.0 4.0 0.00 0.00 0.00 55 1011.8
20260509195553 65 272 4.0 7.0 0.00 0.00 0.00 54 1011.8
20260509195053 64 262 3.0 4.0 0.00 0.00 0.00 55 1011.9
20260509194551 64 279 4.0 6.0 0.00 0.00 0.00 54 1011.8
20260509194051 64 284 5.0 9.0 0.00 0.00 0.00 55 1011.9
20260509193552 64 258 4.0 8.0 0.00 0.00 0.00 54 1011.8
20260509193054 65 251 4.0 7.0 0.00 0.00 0.00 54 1011.8
20260509192551 65 204 3.0 5.0 0.00 0.00 0.00 54 1011.8
20260509192051 64 225 7.0 10.0 0.00 0.00 0.00 53 1011.9
20260509191552 64 257 5.0 7.0 0.00 0.00 0.00 54 1011.9
20260509191051 64 267 8.0 12.0 0.00 0.00 0.00 53 1011.9
20260509190551 64 236 6.0 8.0 0.00 0.00 0.00 51 1011.9
20260509190054 64 348 5.0 7.0 0.00 0.00 0.00 52 1011.7
20260509185551 64 299 3.0 6.0 0.00 0.00 0.00 51 1011.7
20260509185052 64 259 5.0 7.0 0.00 0.00 0.00 51 1011.8
20260509184552 64 222 6.0 11.0 0.00 0.00 0.00 50 1011.7
20260509184051 65 256 4.0 5.0 0.00 0.00 0.00 49 1011.8
20260509183552 65 281 6.0 10.0 0.00 0.00 0.00 50 1011.8
20260509183052 65 272 7.0 8.0 0.00 0.00 0.00 50 1011.9
20260509182555 65 278 6.0 8.0 0.00 0.00 0.00 50 1011.9
20260509182052 65 277 6.0 10.0 0.00 0.00 0.00 52 1011.8
20260509181553 65 271 8.0 10.0 0.00 0.00 0.00 52 1011.8
20260509181053 64 270 8.0 10.0 0.00 0.00 0.00 52 1011.8
20260509180553 64 272 8.0 13.0 0.00 0.00 0.00 51 1011.8
20260509180055 63 268 6.0 12.0 0.00 0.00 0.00 53 1011.8
20260509175551 63 262 6.0 8.0 0.00 0.00 0.00 53 1011.8
20260509175053 64 259 5.0 8.0 0.00 0.00 0.00 54 1011.8
20260509174552 64 284 7.0 11.0 0.00 0.00 0.00 52 1011.7
20260509174052 64 254 6.0 10.0 0.00 0.00 0.00 52 1011.8
20260509173553 64 255 6.0 12.0 0.00 0.00 0.00 52 1011.7
20260509173053 64 260 7.0 9.0 0.00 0.00 0.00 50 1011.8
20260509172552 64 274 8.0 11.0 0.00 0.00 0.00 50 1011.9
20260509172054 64 228 6.0 8.0 0.00 0.00 0.00 49 1011.9
20260509171553 64 280 5.0 7.0 0.00 0.00 0.00 52 1011.9
20260509171055 63 232 5.0 8.0 0.00 0.00 0.00 52 1012.0
20260509170552 63 256 5.0 9.0 0.00 0.00 0.00 54 1012.1
20260509170053 64 275 6.0 11.0 0.00 0.00 0.00 53 1012.1
20260509165552 63 254 4.0 7.0 0.00 0.00 0.00 53 1012.1
20260509165052 63 244 6.0 10.0 0.00 0.00 0.00 53 1012.2
20260509164552 63 266 4.0 7.0 0.00 0.00 0.00 53 1012.3
20260509164051 63 245 5.0 7.0 0.00 0.00 0.00 52 1012.2
20260509163551 62 258 5.0 7.0 0.00 0.00 0.00 52 1012.1
20260509163055 62 232 6.0 11.0 0.00 0.00 0.00 52 1012.2
20260509162555 62 278 7.0 11.0 0.00 0.00 0.00 54 1012.1
20260509162051 63 258 6.0 7.0 0.00 0.00 0.00 55 1012.3
20260509161552 63 265 5.0 8.0 0.00 0.00 0.00 53 1012.3
20260509161053 63 245 4.0 8.0 0.00 0.00 0.00 54 1012.3
20260509160551 62 227 6.0 9.0 0.00 0.00 0.00 54 1012.3
20260509160053 62 260 7.0 8.0 0.00 0.00 0.00 55 1012.3
20260509155553 62 254 5.0 7.0 0.00 0.00 0.00 57 1012.3
20260509155051 62 283 3.0 4.0 0.00 0.00 0.00 58 1012.3
20260509154552 62 260 8.0 12.0 0.00 0.00 0.00 57 1012.2
20260509154052 62 263 6.0 8.0 0.00 0.00 0.00 56 1012.1
20260509153551 61 229 4.0 7.0 0.00 0.00 0.00 60 1012.1